Вернуться в каталог

STARLINK-31472

АктивенСвязьVLEO
NORAD 59730·PAYLOAD·🇺🇸 United States

Запущен May 13, 2024 с Cape Canaveral Space Force Station

Loading…

Ближайшие Пролёты (ближайшие 24 часа)

TLE

СвежийSource: CelesTrak SupGP

Эпоха: Sep 15, 2026, 02:12 UTC

1 59730C 24090A   26258.09215278  .00076245  00000+0  21730-2 0  2582
2 59730  42.9976 191.6922 0009085 178.9914 111.9018 15.35167888    18

Отслеживайте STARLINK-31472 в реальном времени с AllMySat

Download on the App Store